EW4561 Weather Reports


time (UTC)temp
F
wind
direction
speed
knots
gust
knots
rain 1hr
in
rain 24hr
in
rain mn
in
humidity
%
barometer
mb
20260505084843 62 148 0.0 3.5 0.00 0.00 0.00 56 1017.9
20260505084243 63 0 0.0 0.0 0.00 0.00 0.00 57 1017.8
20260505083643 63 0 0.0 0.0 0.00 0.00 0.00 57 1017.6
20260505081843 65 0 0.0 0.0 0.00 0.00 0.00 54 1017.2
20260505081243 65 0 0.0 0.0 0.00 0.00 0.00 53 1017.1
20260505080644 66 0 0.0 0.0 0.00 0.00 0.00 53 1017.1
20260505080042 67 0 0.0 0.0 0.00 0.00 0.00 52 1016.9
20260505074844 68 0 0.0 0.0 0.00 0.00 0.00 49 1016.7
20260505074243 68 0 0.0 0.0 0.00 0.00 0.00 48 1016.6
20260505073643 69 0 0.0 0.0 0.00 0.00 0.00 47 1016.4
20260505073044 69 0 0.0 0.0 0.00 0.00 0.00 47 1016.2
20260505072443 70 0 0.0 0.0 0.00 0.00 0.00 47 1016.3
20260505071842 71 0 0.0 0.0 0.00 0.00 0.00 47 1016.2
20260505071243 71 0 0.0 0.0 0.00 0.00 0.00 46 1016.1
20260505070644 72 0 0.0 0.0 0.00 0.00 0.00 46 1016.0
20260505065444 73 0 0.0 0.0 0.00 0.00 0.00 45 1015.9
20260505064842 73 0 0.0 0.0 0.00 0.00 0.00 45 1015.7
20260505064244 74 0 0.0 0.0 0.00 0.00 0.00 44 1015.7
20260505063643 74 0 0.0 0.0 0.00 0.00 0.00 44 1015.5
20260505063043 75 0 0.0 0.0 0.00 0.00 0.00 43 1015.6
20260505062443 75 0 0.0 0.0 0.00 0.00 0.00 42 1015.5
20260505061843 75 0 0.0 0.0 0.00 0.00 0.00 42 1015.5
20260505061244 76 0 0.0 0.0 0.00 0.00 0.00 42 1015.5
20260505060643 76 0 0.0 0.0 0.00 0.00 0.00 42 1015.5
20260505060042 76 0 0.0 0.0 0.00 0.00 0.00 42 1015.4
20260505055443 76 0 0.0 0.0 0.00 0.00 0.00 40 1015.4
20260505054843 76 0 0.0 0.0 0.00 0.00 0.00 40 1015.3
20260505054244 77 0 0.0 0.0 0.00 0.00 0.00 41 1015.3
20260505053644 77 0 0.0 0.0 0.00 0.00 0.00 39 1015.3
20260505053042 77 0 0.0 0.0 0.00 0.00 0.00 40 1015.3
20260505052444 77 181 0.9 3.5 0.00 0.00 0.00 40 1015.4
20260505051243 77 143 0.9 3.5 0.00 0.00 0.00 41 1015.4
20260505050643 78 144 0.0 3.5 0.00 0.00 0.00 40 1015.4
20260505041243 76 229 0.9 2.6 0.00 0.00 0.00 43 1015.0
20260505040643 76 253 0.9 2.6 0.00 0.00 0.00 42 1014.9
20260505040042 76 237 0.0 2.6 0.00 0.00 0.00 42 1015.0
20260505035442 76 218 0.0 2.6 0.00 0.00 0.00 44 1014.9
20260505034844 76 266 0.0 2.6 0.00 0.00 0.00 44 1014.9
20260505034243 75 244 0.9 2.6 0.00 0.00 0.00 45 1014.9
20260505033642 75 236 0.9 2.6 0.00 0.00 0.00 44 1014.9
20260505033043 75 190 0.9 2.6 0.00 0.00 0.00 45 1015.0
20260505032443 74 232 0.9 2.6 0.00 0.00 0.00 46 1015.0
20260505031842 74 245 0.9 3.5 0.00 0.00 0.00 46 1015.1
20260505031243 74 257 0.0 3.5 0.00 0.00 0.00 45 1015.1
20260505030642 74 276 0.9 3.5 0.00 0.00 0.00 46 1015.1
20260505025444 73 264 1.7 3.5 0.00 0.00 0.00 47 1015.4
20260505024843 72 260 2.6 5.2 0.00 0.00 0.00 46 1015.4
20260505024243 72 254 2.6 5.2 0.00 0.00 0.00 47 1015.3
20260505023643 72 269 2.6 5.2 0.00 0.00 0.00 48 1015.5
20260505023043 72 274 2.6 7.8 0.00 0.00 0.00 48 1015.5
20260505022443 71 258 2.6 7.8 0.00 0.00 0.00 49 1015.6
20260505021843 71 253 2.6 7.0 0.00 0.00 0.00 49 1015.6
20260505021243 71 255 2.6 8.7 0.00 0.00 0.00 50 1015.7
20260505020642 70 252 2.6 8.7 0.00 0.00 0.00 50 1015.7
20260505020043 70 254 2.6 7.0 0.00 0.00 0.00 50 1015.8
20260505015444 70 256 2.6 7.8 0.00 0.00 0.00 50 1016.0
20260505014843 70 253 1.7 7.8 0.00 0.00 0.00 50 1016.1
20260505014243 70 259 1.7 4.3 0.00 0.00 0.00 51 1016.3
20260505013642 69 258 2.6 4.3 0.00 0.00 0.00 52 1016.4
20260505013042 69 268 2.6 4.3 0.00 0.00 0.00 52 1016.5
20260505012443 69 270 2.6 10.4 0.00 0.00 0.00 52 1016.5
20260505011843 69 269 2.6 10.4 0.00 0.00 0.00 53 1016.5
20260505011243 68 271 2.6 10.4 0.00 0.00 0.00 53 1016.6
20260505010643 68 276 2.6 10.4 0.00 0.00 0.00 53 1016.6
20260505010043 68 272 3.5 7.0 0.00 0.00 0.00 53 1016.8
20260505005443 68 284 3.5 12.2 0.00 0.00 0.00 54 1016.8
20260505004843 67 284 3.5 12.2 0.00 0.00 0.00 55 1017.0
20260505004243 67 277 1.7 10.4 0.00 0.00 0.00 55 1017.1
20260505003643 66 276 0.9 10.4 0.00 0.00 0.00 58 1017.1
20260505003042 66 260 1.7 3.5 0.00 0.00 0.00 60 1017.1
20260505001243 65 288 3.5 8.7 0.00 0.00 0.00 62 1017.1
20260505000643 64 281 3.5 10.4 0.00 0.00 0.00 64 1017.0
20260504235443 63 279 2.6 12.2 0.00 0.00 0.00 67 1017.3
20260504234843 62 298 2.6 7.0 0.00 0.00 0.00 69 1017.5
20260504234244 62 304 2.6 7.0 0.00 0.00 0.00 72 1017.5
20260504233043 60 317 2.6 7.8 0.00 0.00 0.00 79 1017.8
20260504232442 59 318 1.7 7.0 0.00 0.00 0.00 81 1017.8
20260504231843 58 315 1.7 4.3 0.00 0.00 0.00 84 1018.0
20260504231243 58 314 0.9 3.5 0.00 0.00 0.00 85 1018.1
20260504230643 57 321 0.9 3.5 0.00 0.00 0.00 85 1018.0
20260504230043 57 334 0.9 3.5 0.00 0.00 0.00 86 1018.1
20260504225443 56 326 0.0 3.5 0.00 0.00 0.00 86 1018.0
20260504224843 56 0 0.0 0.0 0.00 0.00 0.00 86 1018.1
20260504224242 56 0 0.0 0.0 0.00 0.00 0.00 86 1018.1
20260504223643 56 0 0.0 0.0 0.00 0.00 0.00 86 1017.9
20260504223043 56 0 0.0 0.0 0.00 0.00 0.00 86 1017.8
20260504222442 56 0 0.0 0.0 0.00 0.00 0.00 86 1017.8
20260504221843 55 0 0.0 0.0 0.00 0.00 0.00 86 1017.9
20260504221243 55 0 0.0 0.0 0.00 0.00 0.00 86 1017.9
20260504220643 55 0 0.0 0.0 0.00 0.00 0.00 86 1017.7
20260504220043 54 0 0.0 0.0 0.00 0.00 0.00 86 1017.7
20260504215442 54 0 0.0 0.0 0.00 0.00 0.00 86 1017.6
20260504214843 53 0 0.0 0.0 0.00 0.00 0.00 86 1017.4
20260504214243 53 0 0.0 0.0 0.00 0.00 0.00 86 1017.2
20260504213642 52 0 0.0 0.0 0.00 0.00 0.00 86 1016.9
20260504212442 52 0 0.0 0.0 0.00 0.00 0.00 85 1016.8
20260504211842 51 0 0.0 0.0 0.00 0.00 0.00 85 1016.7
20260504211242 51 0 0.0 0.0 0.00 0.00 0.00 85 1016.6
20260504210643 51 0 0.0 0.0 0.00 0.00 0.00 85 1016.5
20260504210043 52 0 0.0 0.0 0.00 0.00 0.00 84 1016.5
20260504205442 52 0 0.0 0.0 0.00 0.00 0.00 85 1016.4
20260504204842 52 0 0.0 0.0 0.00 0.00 0.00 85 1016.4
20260504203643 52 0 0.0 0.0 0.00 0.00 0.00 85 1016.0
20260504203043 52 0 0.0 0.0 0.00 0.00 0.00 85 1016.0
20260504202441 52 0 0.0 0.0 0.00 0.00 0.00 85 1015.9
20260504201842 53 0 0.0 0.0 0.00 0.00 0.00 85 1015.9
20260504201242 52 0 0.0 0.0 0.00 0.00 0.00 85 1015.9
20260504200042 53 0 0.0 0.0 0.00 0.00 0.00 85 1015.8
20260504195442 53 0 0.0 0.0 0.00 0.00 0.00 85 1015.7
20260504194843 53 0 0.0 0.0 0.00 0.00 0.00 85 1015.6
20260504194242 53 0 0.0 0.0 0.00 0.00 0.00 84 1015.6
20260504193043 53 0 0.0 0.0 0.00 0.00 0.00 85 1015.4
20260504192443 54 0 0.0 0.0 0.00 0.00 0.00 84 1015.3
20260504191243 54 0 0.0 0.0 0.00 0.00 0.00 85 1015.4
20260504190643 54 0 0.0 0.0 0.00 0.00 0.00 85 1015.4
20260504190043 54 0 0.0 0.0 0.00 0.00 0.00 84 1015.3
20260504185442 54 0 0.0 0.0 0.00 0.00 0.00 84 1015.3
20260504184843 55 0 0.0 0.0 0.00 0.00 0.00 84 1015.2
20260504184243 55 0 0.0 0.0 0.00 0.00 0.00 84 1015.2
20260504183042 56 0 0.0 0.0 0.00 0.00 0.00 85 1015.0
20260504182442 56 0 0.0 0.0 0.00 0.00 0.00 85 1015.0
20260504181842 56 0 0.0 0.0 0.00 0.00 0.00 84 1014.9
20260504180643 56 0 0.0 0.0 0.00 0.00 0.00 85 1014.8
20260504180043 56 0 0.0 0.0 0.00 0.00 0.00 85 1014.9
20260504175443 57 0 0.0 0.0 0.00 0.00 0.00 84 1014.8
20260504174842 57 0 0.0 0.0 0.00 0.00 0.00 84 1014.7
20260504174243 57 0 0.0 0.0 0.00 0.00 0.00 85 1014.7
20260504173642 57 0 0.0 0.0 0.00 0.00 0.00 85 1014.6
20260504173043 57 0 0.0 0.0 0.00 0.00 0.00 84 1014.6
20260504172442 58 0 0.0 0.0 0.00 0.00 0.00 84 1014.7
20260504171842 58 0 0.0 0.0 0.00 0.00 0.00 85 1014.7
20260504171243 58 0 0.0 0.0 0.00 0.00 0.00 85 1014.7
20260504170642 58 0 0.0 0.0 0.00 0.00 0.00 84 1014.7
20260504150643 62 0 0.0 0.0 0.00 0.00 0.00 85 1014.6
20260504141243 63 0 0.0 0.0 0.00 0.00 0.00 85 1014.5
20260504130643 63 0 0.0 0.0 0.00 0.00 0.00 84 1014.4